Tracking 19484 objects as of 18-Jan-2019
HD Live streaming from Space Station
objects crossing your sky now

STRV 1B

Track STRV 1B now!
10-day predictions
STRV 1B is classified as:


NORAD ID: 23126
Int'l Code: 1994-034C
Perigee: 231.0 km
Apogee: 25,074.4 km
Inclination: 7.2 °
Period: 435.2 minutes
Semi major axis: 19023 km
RCS: 0.317 m2 (medium)
Launch date: June 17, 1994
Source: United Kingdom (UK)
Launch site: FRENCH GUIANA (FRGUI)
aabbcc
Your satellite tracking list
Your tracking list is empty




NASA's NSSDC Master Catalog

Two Line Element Set (TLE):
1 23126U 94034C   19017.95138696  .00005371  00000-0  47403-3 0  9996
2 23126   7.1695  69.6237 6529609 265.4608  22.8789  3.30872330250423
Source of the keplerian elements: AFSPC